• In France
  • List of Countries
  • For 7 days
  • Water Temperature
  • Satellite Maps
  • Weather Map
  • Weather Widgets
  • user-avatar
    Login

    Hourly Weather Zarya

    Today, 23 July, Monday

    Time Temperature Precipitation Wind Pressure Humidity
    00:00 +17°C° 0.1 mm 5 mps 737 mmHg 95%
    01:00 +17°C° 0 mm 5 mps 737 mmHg 95%
    02:00 +17°C° 0 mm 5 mps 737 mmHg 95%
    03:00 +18°C° 0 mm 4 mps 737 mmHg 95%
    04:00 +17°C° 0.1 mm 4 mps 737 mmHg 95%
    05:00 +17°C° 0.1 mm 4 mps 737 mmHg 95%
    06:00 +16°C° 0.1 mm 5 mps 737 mmHg 95%
    07:00 +16°C° 0.1 mm 5 mps 737 mmHg 94%
    08:00 +16°C° 0.1 mm 5 mps 737 mmHg 94%
    09:00 +16°C° 0.1 mm 5 mps 738 mmHg 93%
    10:00 +17°C° 0.1 mm 5 mps 738 mmHg 92%
    11:00 +17°C° 0.1 mm 5 mps 738 mmHg 91%
    12:00 +17°C° 0.1 mm 5 mps 738 mmHg 90%
    13:00 +19°C° 0 mm 5 mps 738 mmHg 89%
    14:00 +20°C° 0 mm 5 mps 738 mmHg 87%
    15:00 +21°C° 0 mm 5 mps 738 mmHg 86%
    16:00 +21°C° 0.1 mm 5 mps 737 mmHg 86%
    17:00 +21°C° 0.1 mm 5 mps 737 mmHg 86%
    18:00 +21°C° 0.1 mm 4 mps 737 mmHg 86%
    19:00 +21°C° 0.1 mm 5 mps 737 mmHg 88%
    20:00 +20°C° 0.1 mm 5 mps 738 mmHg 89%
    21:00 +20°C° 0.1 mm 5 mps 738 mmHg 91%
    22:00 +19°C° 0.4 mm 5 mps 738 mmHg 93%
    23:00 +19°C° 0.4 mm 5 mps 738 mmHg 94%

    Tomorrow, 24 July, Tuesday

    Time Temperature Precipitation Wind Pressure Humidity
    00:00 +19°C° 0.4 mm 4 mps 738 mmHg 96%
    01:00 +18°C° 0.6 mm 4 mps 738 mmHg 96%
    02:00 +18°C° 0.6 mm 4 mps 738 mmHg 95%
    03:00 +18°C° 0.6 mm 4 mps 738 mmHg 95%
    04:00 +18°C° 0 mm 4 mps 738 mmHg 95%
    05:00 +17°C° 0 mm 4 mps 738 mmHg 95%
    06:00 +17°C° 0 mm 4 mps 738 mmHg 95%
    07:00 +18°C° 0.1 mm 4 mps 739 mmHg 94%
    08:00 +19°C° 0.1 mm 4 mps 739 mmHg 93%
    09:00 +20°C° 0.1 mm 3 mps 739 mmHg 91%
    10:00 +21°C° 0 mm 3 mps 739 mmHg 89%
    11:00 +22°C° 0 mm 3 mps 740 mmHg 87%
    12:00 +24°C° 0 mm 3 mps 740 mmHg 85%
    13:00 +25°C° 0.2 mm 3 mps 740 mmHg 81%
    14:00 +26°C° 0.2 mm 3 mps 740 mmHg 78%
    15:00 +27°C° 0.2 mm 3 mps 740 mmHg 75%
    16:00 +27°C° 0.8 mm 3 mps 740 mmHg 77%
    17:00 +26°C° 0.8 mm 3 mps 740 mmHg 79%
    18:00 +26°C° 0.8 mm 3 mps 740 mmHg 81%
    19:00 +25°C° 0.1 mm 3 mps 741 mmHg 85%
    20:00 +22°C° 0.1 mm 3 mps 741 mmHg 89%
    21:00 +21°C° 0.1 mm 3 mps 741 mmHg 93%
    22:00 +21°C° 0 mm 3 mps 741 mmHg 94%
    23:00 +20°C° 0 mm 3 mps 741 mmHg 94%

    Day after tomorrow, 25 July, Wednesday

    Time Temperature Precipitation Wind Pressure Humidity
    00:00 +20°C° 0 mm 3 mps 741 mmHg 95%
    01:00 +20°C° 0.2 mm 3 mps 742 mmHg 95%
    02:00 +20°C° 0.2 mm 2 mps 742 mmHg 94%
    03:00 +19°C° 0.2 mm 2 mps 742 mmHg 94%
    04:00 +19°C° 0.7 mm 2 mps 742 mmHg 94%
    05:00 +19°C° 0.7 mm 2 mps 742 mmHg 94%
    06:00 +19°C° 0.7 mm 3 mps 742 mmHg 94%
    07:00 +20°C° 0.2 mm 3 mps 742 mmHg 90%
    08:00 +21°C° 0.2 mm 3 mps 742 mmHg 87%
    09:00 +22°C° 0.2 mm 3 mps 743 mmHg 84%
    10:00 +22°C° 0 mm 4 mps 743 mmHg 80%
    11:00 +23°C° 0 mm 4 mps 743 mmHg 76%
    12:00 +23°C° 0 mm 5 mps 743 mmHg 73%
    13:00 +23°C° 0 mm 5 mps 743 mmHg 71%
    14:00 +23°C° 0 mm 5 mps 743 mmHg 69%
    15:00 +23°C° 0 mm 5 mps 743 mmHg 68%
    16:00 +22°C° 0.1 mm 5 mps 743 mmHg 70%
    17:00 +22°C° 0.1 mm 5 mps 742 mmHg 72%
    18:00 +21°C° 0.1 mm 4 mps 742 mmHg 74%
    19:00 +21°C° 0 mm 4 mps 743 mmHg 74%
    20:00 +21°C° 0 mm 4 mps 743 mmHg 75%
    21:00 +21°C° 0 mm 4 mps 743 mmHg 76%
    22:00 +21°C° 0 mm 4 mps 743 mmHg 76%
    23:00 +20°C° 0 mm 4 mps 743 mmHg 76%

    26 July, Thursday

    Time Temperature Precipitation Wind Pressure Humidity
    00:00 +20°C° 0 mm 4 mps 743 mmHg 76%
    01:00 +20°C° 0 mm 4 mps 743 mmHg 76%
    02:00 +19°C° 0 mm 4 mps 743 mmHg 76%
    03:00 +19°C° 0 mm 4 mps 743 mmHg 77%
    04:00 +19°C° 0 mm 4 mps 743 mmHg 78%
    05:00 +19°C° 0 mm 4 mps 743 mmHg 80%
    06:00 +19°C° 0 mm 4 mps 744 mmHg 82%
    07:00 +21°C° 0 mm 5 mps 744 mmHg 79%
    08:00 +22°C° 0 mm 5 mps 744 mmHg 76%
    09:00 +23°C° 0 mm 5 mps 744 mmHg 74%
    10:00 +25°C° 0 mm 5 mps 744 mmHg 72%
    11:00 +26°C° 0 mm 5 mps 744 mmHg 70%
    12:00 +27°C° 0 mm 5 mps 744 mmHg 68%
    13:00 +27°C° 0 mm 5 mps 745 mmHg 68%
    14:00 +28°C° 0 mm 5 mps 745 mmHg 67%
    15:00 +28°C° 0 mm 5 mps 745 mmHg 67%
    16:00 +27°C° 0 mm 4 mps 745 mmHg 69%
    17:00 +26°C° 0 mm 4 mps 745 mmHg 71%
    18:00 +25°C° 0 mm 4 mps 745 mmHg 73%
    19:00 +25°C° 0 mm 4 mps 745 mmHg 73%
    20:00 +23°C° 0 mm 4 mps 745 mmHg 74%
    21:00 +22°C° 0 mm 4 mps 745 mmHg 74%
    22:00 +22°C° 0 mm 4 mps 745 mmHg 75%
    23:00 +22°C° 0 mm 4 mps 745 mmHg 75%

    27 July, Friday

    Time Temperature Precipitation Wind Pressure Humidity
    00:00 +22°C° 0 mm 4 mps 746 mmHg 76%
    01:00 +22°C° 0 mm 4 mps 746 mmHg 77%
    02:00 +22°C° 0 mm 4 mps 746 mmHg 77%
    03:00 +22°C° 0 mm 4 mps 746 mmHg 78%
    04:00 +21°C° 0.1 mm 4 mps 746 mmHg 80%
    05:00 +21°C° 0.1 mm 3 mps 746 mmHg 82%
    06:00 +20°C° 0.1 mm 3 mps 746 mmHg 84%
    07:00 +21°C° 0 mm 3 mps 746 mmHg 81%
    08:00 +22°C° 0 mm 3 mps 747 mmHg 79%
    09:00 +25°C° 0 mm 4 mps 747 mmHg 76%
    10:00 +26°C° 0 mm 4 mps 747 mmHg 71%
    11:00 +27°C° 0 mm 4 mps 747 mmHg 67%
    12:00 +29°C° 0 mm 4 mps 747 mmHg 62%
    13:00 +29°C° 0 mm 4 mps 747 mmHg 60%
    14:00 +29°C° 0 mm 4 mps 747 mmHg 58%
    15:00 +30°C° 0 mm 4 mps 746 mmHg 56%
    16:00 +29°C° 0 mm 4 mps 746 mmHg 59%
    17:00 +29°C° 0 mm 3 mps 746 mmHg 62%
    18:00 +28°C° 0 mm 3 mps 746 mmHg 65%
    19:00 +27°C° 0 mm 3 mps 746 mmHg 68%
    20:00 +25°C° 0 mm 3 mps 746 mmHg 71%
    21:00 +24°C° 0 mm 3 mps 746 mmHg 74%
    22:00 +22°C° 0 mm 3 mps 746 mmHg 75%
    23:00 +22°C° 0 mm 3 mps 746 mmHg 75%

    28 July, Saturday

    Time Temperature Precipitation Wind Pressure Humidity
    00:00 +21°C° 0 mm 3 mps 746 mmHg 76%
    01:00 +21°C° 0 mm 3 mps 746 mmHg 77%
    02:00 +20°C° 0 mm 3 mps 746 mmHg 79%
    03:00 +20°C° 0 mm 3 mps 746 mmHg 80%
    04:00 +20°C° 0 mm 3 mps 746 mmHg 81%
    05:00 +20°C° 0 mm 3 mps 747 mmHg 83%
    06:00 +19°C° 0 mm 3 mps 747 mmHg 84%
    07:00 +21°C° 0 mm 3 mps 747 mmHg 80%
    08:00 +24°C° 0 mm 3 mps 747 mmHg 77%
    09:00 +25°C° 0 mm 4 mps 747 mmHg 73%
    10:00 +26°C° 0 mm 4 mps 747 mmHg 68%
    11:00 +28°C° 0 mm 4 mps 747 mmHg 64%
    12:00 +29°C° 0 mm 4 mps 747 mmHg 59%
    13:00 +29°C° 0 mm 4 mps 746 mmHg 57%
    14:00 +30°C° 0 mm 4 mps 746 mmHg 55%
    15:00 +30°C° 0 mm 3 mps 746 mmHg 52%
    16:00 +30°C° 0 mm 3 mps 746 mmHg 55%
    17:00 +30°C° 0 mm 3 mps 746 mmHg 58%
    18:00 +29°C° 0 mm 2 mps 746 mmHg 61%
    19:00 +28°C° 0 mm 2 mps 746 mmHg 65%
    20:00 +26°C° 0 mm 3 mps 746 mmHg 68%
    21:00 +24°C° 0 mm 3 mps 746 mmHg 71%
    22:00 +24°C° 0 mm 3 mps 746 mmHg 72%
    23:00 +22°C° 0 mm 3 mps 746 mmHg 73%
    Show more